Location: B?lite?ti
(46.2833°N, 22.7333°E)
Time: 18:05:16
(UTC+00:00)

Daily predictions for brighter satellites

Satellite Brightness Start Highest point End
(mag) Time Altitude Azimuth Time Altitude Azimuth Time Altitude Azimuth
STARLINK-78 3.6 16:30:01 10° WSW 16:34:02 84° NNW 16:38:05 10° ENE
Meteor 2-6 Rocket 4.3 16:28:44 10° NNW 16:34:19 87° W 16:39:44 10° S
Cosmos 1864 Rocket 4.5 16:28:39 10° S 16:34:45 68° E 16:40:50 10° NNE
STARLINK-66 3.9 16:32:33 10° W 16:35:43 43° NNW 16:38:53 10° NE
STARLINK-57 3.6 16:31:46 10° WSW 16:35:48 80° NNW 16:39:50 10° ENE
Meteor 1-10 Rocket 4.2 16:30:11 10° N 16:35:51 84° E 16:41:24 10° SSE
STARLINK-55 3.9 16:32:48 10° W 16:35:57 43° NNW 16:39:07 10° NE
Cosmos 2369 Rocket 2.6 16:30:53 10° S 16:36:11 44° ESE 16:41:33 10° NE
Cosmos 1782 4.3 16:32:59 10° NNW 16:36:48 42° W 16:40:34 10° SSW
Cosmos 2285 Rocket 4.5 16:30:53 10° N 16:36:52 40° ENE 16:42:51 10° SE
STARLINK-49 3.6 16:33:17 10° WSW 16:37:18 81° NNW 16:41:21 10° ENE
Cosmos 1802 Rocket 4.2 16:31:11 10° S 16:37:29 82° W 16:43:55 10° N
Aureole 2 Rocket 2.6 16:35:13 10° S 16:37:35 30° ESE 16:39:58 10° NE
STARLINK-28 4.0 16:34:31 10° W 16:37:38 40° NNW 16:40:45 10° NE
STARLINK-1007 2.9 16:34:35 10° WSW 16:37:47 89° NW 16:41:01 10° ENE
STARLINK-27 3.6 16:34:58 10° WSW 16:38:59 79° NNW 16:43:01 10° ENE
USA 234 4.3 16:33:20 10° ENE 16:39:08 35° N 16:44:56 10° WNW
STARLINK-1060 4.5 16:35:44 10° SSW 16:39:29 34° SE 16:43:15 10° ENE
Tsikada Rocket 4.1 16:33:26 10° N 16:39:49 69° E 16:46:12 10° SSE
STARLINK-74 3.7 16:36:38 10° WSW 16:40:38 77° NNW 16:44:41 10° ENE
YAOGAN 1 2.7 16:36:52 10° SSE 16:41:05 55° ENE 16:45:20 10° N
Cosmos 1812 2.8 16:37:59 10° N 16:41:48 55° ENE 16:45:35 10° SSE
NOSS 2-3 (D) 4.5 16:38:27 10° S 16:42:13 30° ESE 16:46:26 10° NE
STARLINK-39 3.7 16:38:16 10° WSW 16:42:17 75° NNW 16:46:20 10° ENE
SL-4 R/B 4.4 16:38:52 10° WNW 16:42:58 29° SW 16:46:53 10° SSE
USA 229 DEB 3.7 16:37:20 10° SSW 16:43:52 79° SE 16:50:46 10° NE
STARLINK-31 3.7 16:39:58 10° WSW 16:43:58 73° NNW 16:48:00 10° ENE
USA 229 3.6 16:37:27 10° SSW 16:43:59 79° SE 16:50:52 10° NE
STARLINK-1030 4.3 16:40:39 10° SSW 16:44:28 37° SE 16:48:18 10° ENE
Cosmos 1633 Rocket 3.1 16:41:26 10° S 16:45:40 57° E 16:49:56 10° NNE
STARLINK-69 3.8 16:41:47 10° WSW 16:45:47 68° NNW 16:49:49 10° ENE
STARLINK-42 4.0 16:43:32 10° W 16:46:37 41° NNW 16:49:44 10° NE
STARLINK-21 3.8 16:43:16 10° WSW 16:47:17 70° NNW 16:51:19 10° ENE
STARLINK-45 3.9 16:45:10 10° WSW 16:49:10 64° NNW 16:53:11 10° ENE
CZ-2D R/B 3.4 16:45:25 10° SSE 16:49:11 52° ENE 16:52:59 10° N
STARLINK-1020 4.2 16:45:31 10° SSW 16:49:23 40° SE 16:53:05 11° ENE
SL-27 R/B 2.2 16:46:13 10° NNW 16:49:34 82° ENE 16:52:52 10° SSE
SKYMED 2 3.6 16:45:14 10° NNE 16:49:36 87° WNW 16:53:57 10° SSW
STARLINK-1047 4.2 16:46:10 10° SSW 16:50:06 42° SE 16:53:50 11° ENE
Cosmos 1862 3.4 16:46:17 10° S 16:50:16 81° W 16:54:16 10° N
Cosmos 1238 Rocket 4.5 16:44:08 10° SSW 16:50:30 72° W 16:57:12 10° N
STARLINK-70 3.9 16:46:44 10° WSW 16:50:44 65° NNW 16:54:44 10° ENE
NOSS 3-1 (A) 3.4 16:45:47 10° SSW 16:51:07 57° ESE 16:57:17 10° NE
STARLINK-1010 3.1 16:47:55 10° WSW 16:51:09 71° NNW 16:54:19 10° ENE
Cosmos 2016 Rocket 4.2 16:45:14 10° SSW 16:51:19 77° W 16:57:29 10° N
STARLINK-76 3.8 16:48:15 10° WSW 16:52:15 66° NNW 16:56:17 10° ENE
Cosmos 1666 Rocket 3.6 16:47:49 10° S 16:52:17 82° E 16:56:48 10° N
Cosmos 1933 Rocket 4.4 16:49:17 10° SSE 16:53:03 28° E 16:56:48 10° NNE
STARLINK-23 3.9 16:49:56 10° WSW 16:53:55 64° NNW 16:57:56 10° ENE
STARLINK-1052 4.1 16:50:27 10° SSW 16:54:22 44° SE 16:57:54 12° ENE
STARLINK-32 3.9 16:51:36 10° WSW 16:55:36 63° NNW 16:59:31 10° ENE
Cosmos 44 3.1 16:52:08 10° NNW 16:56:29 62° NE 17:00:58 10° SE
STARLINK-40 3.9 16:53:14 10° WSW 16:57:14 62° NNW 17:01:05 11° NE
STARLINK-29 3.2 16:54:37 10° NW 16:58:01 62° NNE 17:00:50 14° ESE
STARLINK-44 3.9 16:54:55 10° WSW 16:58:53 60° NNW 17:02:41 11° NE
CENTAUR R/B 4.4 16:54:58 10° NW 17:00:25 22° N 17:06:25 10° ENE
STARLINK-37 4.0 16:56:43 10° WSW 17:00:41 57° NNW 17:04:24 12° NE
Cosmos 2263 4.4 16:55:37 10° S 17:01:10 50° ESE 17:06:43 10° NE
Ariane Rocket 3.5 16:57:06 10° SE 17:01:44 37° ENE 17:06:24 10° N
STARLINK-36 4.0 16:58:15 10° WSW 17:02:13 58° NNW 17:05:52 12° NE
STARLINK-64 4.2 16:59:06 10° W 17:02:32 42° NNW 17:05:40 12° NE
ARGOS 4.2 16:58:44 10° ESE 17:03:04 25° ENE 17:07:25 10° N
Cosmos 1346 Rocket 3.3 16:59:45 10° SSE 17:03:24 35° E 17:07:02 10° NNE
STARLINK-68 4.1 17:00:08 10° WSW 17:04:05 54° NNW 17:07:39 12° NE
CSL-04 Rocket 3.7 16:58:43 10° SSE 17:04:15 83° ENE 17:09:46 10° NNW
STARLINK-1033 3.9 17:00:16 10° SW 17:04:17 51° SE 17:07:27 16° ENE
STARLINK-1029 3.0 17:01:10 10° WSW 17:04:20 72° NNW 17:06:52 15° NE
STARLINK-1035 3.8 17:00:22 10° SW 17:04:32 58° SE 17:07:56 15° ENE
STARLINK-75 4.3 17:01:36 10° W 17:04:46 36° NNW 17:07:35 12° NE
STARLINK-1008 3.5 17:01:51 10° WSW 17:05:06 57° NNW 17:07:48 14° NE
STARLINK-1016 3.4 17:01:54 10° WSW 17:05:07 57° NNW 17:07:46 14° NE
STARLINK-63 4.1 17:01:41 10° WSW 17:05:38 54° NNW 17:09:08 13° NE
Cosmos 2233 Rocket 3.9 17:00:31 10° S 17:06:38 75° E 17:12:50 10° NNE
USA 116 3.8 17:02:47 10° NNE 17:06:47 78° ESE 17:11:16 10° S
STARLINK-35 4.1 17:03:14 10° WSW 17:07:11 55° NNW 17:10:38 13° NE
STARLINK-22 4.1 17:04:05 10° W 17:07:17 39° NNW 17:10:00 13° NE
STARLINK-61 4.5 17:03:46 10° W 17:07:28 39° NNW 17:10:42 13° NE
STARLINK-1025 3.5 17:04:55 10° WSW 17:08:08 55° NNW 17:10:42 15° NE
STARLINK-41 4.2 17:05:37 10° W 17:08:46 37° NNW 17:11:24 14° NE
STARLINK-51 4.1 17:04:55 10° W 17:08:52 54° NNW 17:12:14 14° NE
FALCON 9 DEB 3.0 17:05:36 10° WNW 17:09:03 84° NNE 17:11:39 17° ESE
STARLINK-1017 3.5 17:06:26 10° WSW 17:09:39 54° NNW 17:12:09 16° NE
STARLINK-52 3.1 17:06:47 10° WNW 17:10:09 68° NNE 17:12:23 20° ESE
STARLINK-30 4.1 17:06:35 10° W 17:10:32 53° NNW 17:13:50 14° NE
ATLAS 3B R/B 4.5 17:06:42 10° NW 17:10:55 17° N 17:15:11 10° NE
STARLINK-72 4.1 17:08:14 10° W 17:12:10 52° NNW 17:15:24 15° NE
STARLINK-50 4.2 17:09:54 10° W 17:13:50 51° NNW 17:16:59 15° NE
STARLINK-1024 3.7 17:10:07 10° SW 17:14:11 61° SE 17:17:00 19° ENE
STARLINK-1048 3.6 17:11:05 10° WSW 17:14:18 50° NNW 17:16:37 17° NE
H-2A R/B 2.8 17:09:55 10° SE 17:14:43 35° ENE 17:19:36 10° N
STARLINK-1027 3.7 17:10:55 10° SW 17:15:09 73° SE 17:18:12 18° ENE
STARLINK-59 4.2 17:11:41 10° W 17:15:36 49° NNW 17:18:41 15° NE
STARLINK-1049 3.7 17:12:40 10° W 17:15:51 49° NNW 17:18:07 18° NE
STARLINK 1040 3.8 17:13:19 10° W 17:15:58 37° NNW 17:17:40 18° NE
STARLINK-60 3.9 17:12:59 10° WNW 17:16:10 47° SW 17:19:06 12° SE
NOSS 2-3 (C) 3.7 17:11:56 10° SSW 17:16:11 63° SE 17:21:12 10° NE
STARLINK-56 4.2 17:13:13 10° W 17:17:08 49° NNW 17:20:10 16° NE
STARLINK-1028 3.7 17:14:14 10° W 17:17:26 48° NNW 17:19:38 18° NE
STARLINK-1051 3.7 17:14:16 10° W 17:17:28 48° NNW 17:19:39 18° NE
DMSP B5D1-3 4.4 17:13:24 10° NNE 17:18:33 73° ESE 17:23:41 10° S
STARLINK-73 4.2 17:14:54 10° W 17:18:49 48° NNW 17:21:46 16° NE
Cosmos 2297 Rocket 4.1 17:16:30 10° N 17:18:56 13° NE 17:20:26 12° NE
STARLINK-1021 3.8 17:15:52 10° W 17:19:04 47° NNW 17:21:12 19° NE
Cosmos 724 4.2 17:13:16 10° NW 17:19:06 84° ENE 17:24:56 10° SE
STARLINK-1014 3.6 17:16:09 10° WSW 17:19:33 57° NNW 17:21:49 19° NE
Lacrosse 5 3.7 17:17:32 10° SE 17:19:12 13° SE 17:19:12 13° SE
Meteor 1-20 Rocket 4.5 17:15:05 10° SSE 17:20:11 42° E 17:25:22 10° NNE
STARLINK-38 4.3 17:16:36 10° W 17:20:30 47° NNW 17:23:23 17° NE
STARLINK-1019 3.8 17:17:30 10° W 17:20:41 46° NNW 17:22:46 19° NE
CSL-04 Debris 4.5 17:15:42 10° S 17:21:08 72° WSW 17:26:38 10° NNW
STARLINK-65 4.3 17:18:15 10° W 17:22:09 47° NNW 17:24:57 17° NE
STARLINK-1012 3.8 17:19:11 10° W 17:22:23 45° NNW 17:24:22 20° NE
STARLINK-53 4.4 17:20:02 10° W 17:23:54 45° NNW 17:26:38 18° NE
STARLINK-1032 3.6 17:20:02 10° SW 17:24:09 71° SE 17:26:35 23° ENE
STARLINK-1026 3.9 17:22:30 10° W 17:25:40 43° NNW 17:27:32 21° NE
Meteor 1-27 Rocket 4.3 17:21:43 10° NNW 17:27:12 61° W 17:32:43 10° S
STARLINK-1013 3.9 17:24:09 10° W 17:27:19 43° NNW 17:29:08 21° NE
STARLINK-1009 4.0 17:25:48 10° W 17:28:59 42° NNW 17:30:43 22° NE
STARLINK-1011 3.5 17:24:58 10° SW 17:29:06 77° SSE 17:31:22 26° ENE
STARLINK-43 4.4 17:26:01 10° NW 17:29:25 33° NNE 17:30:45 25° NE
Lacrosse 4 Rocket 4.0 17:27:39 10° W 17:30:38 18° NW 17:33:40 10° N
STARLINK-1015 4.0 17:27:30 10° W 17:30:41 41° NNW 17:32:21 23° NE
Lacrosse 5 rocket 3.4 17:27:44 10° NW 17:31:12 21° N 17:33:40 14° NE
Okean 1 3.9 17:28:06 10° N 17:31:47 33° ENE 17:32:37 30° E
Cosmos 1470 Rocket 3.6 17:28:12 10° S 17:32:33 83° W 17:36:59 10° N
STARLINK-1036 3.5 17:29:57 10° SW 17:34:05 82° SSE 17:36:09 29° ENE
Cosmos 1943 Rocket 2.9 17:28:44 10° SW 17:34:13 55° WNW 17:39:41 10° NNE
Cosmos 2242 Rocket 3.5 17:29:46 10° N 17:34:20 80° E 17:38:54 10° SSE
Gbstr 26 Del rocket 3.8 17:31:05 10° SSW 17:34:46 33° SE 17:35:48 29° ESE
Resurs 01 Rocket 3.6 17:37:56 14° NE 17:37:56 14° NE 17:39:13 10° NNE
SL-08 RB Rocket 4.5 17:36:16 28° ENE 17:36:42 29° ENE 17:40:35 10° N
Cosmos 2227 Rocket 3.9 17:34:30 10° N 17:37:35 15° NE 17:38:17 14° NE
Cosmos 1862 Rocket 4.4 17:34:46 10° NNW 17:39:00 52° W 17:43:13 10° S
STARLINK-1044 3.5 17:34:54 10° WSW 17:39:03 88° SSE 17:40:55 32° ENE
Cosmos 1939 Rocket 4.4 17:37:00 10° SSW 17:40:53 40° W 17:44:49 10° NNW
CZ-2C R/B 3.5 17:38:01 10° SE 17:43:37 51° ENE 17:49:07 10° N
CZ-4 R/B 3.9 17:40:29 10° SSW 17:43:59 25° W 17:47:29 10° NW
NOSS 3-1 (C) 4.2 17:38:52 10° WSW 17:44:18 48° NW 17:50:39 10° NE
USA 267 4.5 17:45:45 20° SE 17:45:45 20° SE 17:49:54 10° S
STARLINK-1031 3.6 17:41:35 10° WSW 17:45:38 77° NNW 17:47:13 35° NE
Cosmos 1340 3.5 17:44:18 10° SSW 17:47:59 52° WNW 17:51:41 10° N
Cosmos 1891 Rocket 4.4 17:42:42 10° S 17:48:47 64° E 17:55:02 10° NNE
STARLINK-1037 3.6 17:44:50 10° WSW 17:48:58 82° NNW 17:50:27 39° NE
OE (NEXTSAT) 4.2 17:46:03 10° W 17:49:32 87° S 17:50:01 65° E
STARLINK-1059 3.6 17:49:52 10° WSW 17:54:01 77° NNW 17:55:18 43° NE
Meteor 1-19 Rocket 4.3 17:49:06 10° N 17:54:51 56° ENE 17:58:11 24° SE
Cosmos 405 2.8 17:51:55 10° N 17:55:28 71° ENE 17:55:35 70° E
Cosmos 1703 Rocket 3.5 17:51:25 10° N 17:55:54 84° ENE 18:00:23 10° S
Okean 1-7 2.8 17:52:36 10° N 17:56:56 74° E 17:59:21 26° SSE
SPOT 3 Rocket 3.8 17:55:45 38° ESE 17:57:09 47° ENE 18:02:09 10° N
STARLINK-1023 4.3 17:55:37 10° WNW 17:58:27 30° NNW 17:58:46 29° N
STARLINK-1057 3.7 17:54:51 10° WSW 17:59:00 72° NNW 18:00:04 47° NE
Meteor 2-4 Rocket 4.2 17:53:34 10° N 17:59:07 41° ENE 18:00:04 38° E
Cosmos 468 Rocket 4.0 17:54:39 10° S 17:59:47 54° ESE 18:03:59 16° NNE
ADEOS Rocket 3.9 17:52:29 10° N 18:00:12 69° WNW 18:07:48 10° SSW
Cosmos 2219 4.3 17:55:51 10° N 18:00:40 27° NE 18:00:46 27° NE
Cosmos 44 Rocket 3.5 17:56:40 10° NNW 18:01:16 48° NE 18:01:43 46° ENE
COSMOS 2487 2.4 17:57:56 10° NNW 18:01:25 81° WSW 18:01:42 72° S
Meteor 1-25 Rocket 4.2 17:56:12 10° S 18:01:55 88° W 18:07:35 10° N
STARLINK-1034 3.8 17:59:50 10° WSW 18:03:57 68° NNW 18:04:50 51° NNE
Cosmos 1869 Rocket 4.3 18:00:32 10° S 18:06:24 36° NNE 18:09:11 10° NNE
Cosmos 1656 Rocket 3.7 18:01:38 10° SSW 18:07:09 78° WNW 18:12:48 10° NNE
SJ 16-02 1.2 18:03:26 10° NNW 18:07:52 68° ENE 18:08:07 66° E
IRS-1A Rocket 4.5 18:02:26 10° S 18:07:55 69° WSW 18:13:26 10° NNW
Cosmos 489 Rocket 4.4 18:02:15 10° S 18:08:33 72° ESE 18:14:52 10° NNE
STARLINK-1068 3.9 18:04:50 10° WSW 18:08:57 64° NNW 18:09:37 54° NNE
Cosmos 1898 Rocket 3.3 18:04:55 10° NNW 18:10:08 78° ENE 18:11:47 44° SE
Cosmos 1464 Rocket 4.0 18:07:44 10° S 18:14:06 86° W 18:20:33 10° N
Nadezhda 4 Rocket 3.9 18:08:49 10° N 18:15:08 72° E 18:19:07 24° SSE
SJ-6B 3.0 18:16:54 62° NNW 18:16:54 62° NNW 18:20:05 10° NNW
STARLINK-1060 4.0 18:14:51 10° WSW 18:18:55 57° NNW 18:19:11 56° N
Cosmos 2369 Rocket 3.8 18:15:13 10° WSW 18:20:20 34° NW 18:25:31 10° NNE
USA 234 3.9 18:19:11 33° NE 18:21:14 41° NNE 18:27:17 10° NW
STARLINK-1030 4.1 18:19:53 10° W 18:23:58 54° NNW 18:24:00 54° NNW
Cosmos 1763 Rocket 3.3 18:21:49 10° SSW 18:27:01 76° ESE 18:27:08 75° E
NOSS 3-2 (A) 4.4 18:21:58 10° NNW 18:28:52 43° NE 18:30:14 40° ENE
STARLINK-1020 4.3 18:24:52 10° W 18:28:45 51° NNW 18:28:45 51° NNW
STARLINK-1047 4.3 18:25:42 10° W 18:29:37 50° NNW 18:29:37 50° NNW
MetOp-A 4.0 18:29:56 72° E 18:30:03 73° ENE 18:35:25 10° N
STARLINK-1052 4.4 18:29:55 10° W 18:33:34 47° NW 18:33:34 47° NW
Cosmos 2034 Rocket 3.9 18:27:48 10° S 18:33:58 85° W 18:40:11 10° N
Timation 2 Rocket 4.1 18:27:13 10° NNW 18:34:09 86° WSW 18:36:34 45° SSE
Cosmos 858 Rocket 4.3 18:29:39 10° NNW 18:34:55 87° WSW 18:35:08 83° S
ARGOS 3.8 18:39:13 19° S 18:42:59 54° W 18:48:19 10° NNW
CENTAUR R/B 3.7 18:46:17 10° NNW 18:53:27 39° NE 18:54:06 38° NE
H-2A R/B 3.5 18:49:08 10° SSW 18:54:03 37° W 18:59:06 10° NNW
Cosmos 1092 Rocket 3.9 18:52:16 10° N 18:58:40 85° W 18:58:49 84° SW
Lacrosse 5 3.8 18:56:56 10° SW 18:58:29 20° SW 18:58:29 20° SW
ATLAS 3B R/B 3.9 18:58:21 10° NNW 19:03:34 28° NNE 19:03:34 28° NNE
Cosmos 2297 Rocket 3.3 18:58:50 10° NNW 19:02:15 34° N 19:02:15 34° N
Cosmos 1937 Rocket 4.3 19:00:28 10° NNW 19:05:16 49° W 19:05:16 49° W
Lacrosse 5 rocket 3.7 19:07:19 10° NW 19:09:19 22° NNW 19:09:19 22° NNW
Resurs 01 Rocket 3.9 19:15:30 20° NNW 19:15:30 20° NNW 19:16:57 10° NNW
Cosmos 2227 Rocket 3.6 19:17:12 10° NNW 19:20:07 31° N 19:20:07 31° N
USA 238 DEB 4.0 19:20:20 10° NW 19:26:20 63° NNW 19:26:20 63° NNW
USA 238 4.0 19:20:27 10° NW 19:26:24 63° NNW 19:26:24 63° NNW
SJ 16-02 4.3 19:43:52 10° WNW 19:45:09 12° W 19:45:09 12° W
USA 234 4.3 20:06:31 39° NW 20:06:31 39° NW 20:10:24 10° NW
CENTAUR R/B 4.2 20:36:54 10° NW 20:41:17 38° NW 20:41:17 38° NW
